User: anonymous   Login
Location: Unspecified
(0.0000°N, 0.0000°E)
Time: 07:24:54
(UTC+02:00)
Language:

Ariane 42L R/B - Orbit

View from above orbital plane
View from above orbital plane
View from above satellite
View from above satellite

Ground track
Ground track

The orbit data is extracted from the following two-line orbital elements,

1 26299U 00020B   15144.48679284  .00012059  00000-0  13700-2 0  9993
2 26299 007.3903 230.8926 6061704 035.9299 352.5896 03.97638913188298
Epoch (UTC): 24 May 2015 11:40:58
Eccentricity: 0.6061704
inclination: 7.3903°
perigee height: 250 km
apogee height: 20653 km
right ascension of ascending node: 230.8926°
argument of perigee: 35.9299°
revolutions per day: 3.97638913
mean anomaly at epoch: 352.5896°
orbit number at epoch: 18829

The dashed part of the orbit path shows where the satellite is in the earth's shadow,  

DLR